GW1058 Weather Reports


time (UTC)temp
C
wind
direction
speed
KPH
gust
KPH
rain 1hr
cm
rain 24hr
cm
rain mn
cm
humidity
%
barometer
mb
20260503050938 14 225 1.6 4.8 0.00 0.00 0.00 49 1010.3
20260503050433 14 251 3.2 4.8 0.00 0.00 0.00 49 1010.2
20260503045932 14 237 3.2 9.7 0.00 0.00 0.00 49 1010.4
20260503045429 14 237 8.0 12.9 0.00 0.00 0.00 48 1010.5
20260503044925 14 211 6.4 9.7 0.00 0.00 0.00 48 1010.2
20260503044422 14 219 6.4 9.7 0.00 0.00 0.00 48 1010.3
20260503043920 14 219 4.8 11.3 0.00 0.00 0.00 47 1010.6
20260503043416 14 217 3.2 8.0 0.00 0.00 0.00 47 1010.5
20260503042913 14 236 4.8 8.0 0.00 0.00 0.00 47 1010.7
20260503042409 14 209 4.8 11.3 0.00 0.00 0.00 47 1010.7
20260503041906 14 189 1.6 4.8 0.00 0.00 0.00 47 1010.6
20260503041403 14 244 4.8 4.8 0.00 0.00 0.00 47 1010.7
20260503040900 14 210 3.2 4.8 0.00 0.00 0.00 48 1010.7
20260503040358 14 214 6.4 8.0 0.00 0.00 0.00 47 1011.0
20260503035854 14 199 3.2 4.8 0.00 0.00 0.00 46 1010.9
20260503035351 14 215 1.6 4.8 0.00 0.00 0.00 46 1011.1
20260503034848 14 239 1.6 4.8 0.00 0.00 0.00 46 1011.0
20260503034346 14 228 1.6 4.8 0.00 0.00 0.00 46 1011.0
20260503033843 13 228 3.2 4.8 0.00 0.00 0.00 47 1011.2
20260503033341 13 202 3.2 4.8 0.00 0.00 0.00 48 1011.3
20260503032838 13 193 1.6 3.2 0.00 0.00 0.00 49 1011.4
20260503032337 13 216 0.0 1.6 0.00 0.00 0.00 49 1011.5
20260503031834 13 226 0.0 1.6 0.00 0.00 0.00 48 1011.7
20260503031332 13 252 3.2 4.8 0.00 0.00 0.00 48 1011.6
20260503030828 13 245 1.6 4.8 0.00 0.00 0.00 48 1011.5
20260503030325 13 249 3.2 3.2 0.00 0.00 0.00 48 1011.6
20260503025821 13 236 4.8 4.8 0.00 0.00 0.00 46 1011.8
20260503025319 13 193 3.2 4.8 0.00 0.00 0.00 46 1011.7
20260503024815 13 247 3.2 4.8 0.00 0.00 0.00 46 1011.7
20260503024312 13 217 1.6 3.2 0.00 0.00 0.00 46 1011.9
20260503023809 13 210 1.6 3.2 0.00 0.00 0.00 46 1011.7
20260503023307 13 217 1.6 3.2 0.00 0.00 0.00 45 1011.6
20260503022803 13 214 0.0 3.2 0.00 0.00 0.00 45 1011.9
20260503022304 13 217 0.0 1.6 0.00 0.00 0.00 45 1011.8
20260503021759 13 220 0.0 1.6 0.00 0.00 0.00 45 1011.7
20260503021255 13 213 0.0 1.6 0.00 0.00 0.00 45 1011.8
20260503020754 13 220 1.6 1.6 0.00 0.00 0.00 45 1011.8
20260503020251 13 207 1.6 1.6 0.00 0.00 0.00 45 1011.8
20260503015747 13 206 0.0 3.2 0.00 0.00 0.00 45 1011.9
20260503015244 13 203 1.6 3.2 0.00 0.00 0.00 45 1011.7
20260503014739 13 198 1.6 3.2 0.00 0.00 0.00 44 1011.7
20260503014238 13 200 1.6 4.8 0.00 0.00 0.00 44 1011.8
20260503013735 14 196 1.6 3.2 0.00 0.00 0.00 44 1011.9
20260503013232 14 199 3.2 4.8 0.00 0.00 0.00 44 1011.9
20260503012730 14 195 3.2 4.8 0.00 0.00 0.00 43 1011.8
20260503012227 14 207 0.0 3.2 0.00 0.00 0.00 44 1012.0
20260503011723 14 201 3.2 3.2 0.00 0.00 0.00 43 1012.0
20260503011220 15 198 4.8 4.8 0.00 0.00 0.00 43 1012.0
20260503010716 15 189 4.8 8.0 0.00 0.00 0.00 42 1012.1
20260503010213 15 198 3.2 4.8 0.00 0.00 0.00 42 1012.0
20260503005711 15 200 3.2 4.8 0.00 0.00 0.00 42 1012.2
20260503005208 15 182 3.2 4.8 0.00 0.00 0.00 41 1012.2
20260503004704 15 208 3.2 8.0 0.00 0.00 0.00 40 1012.1
20260503004203 15 201 3.2 3.2 0.00 0.00 0.00 40 1012.1
20260503003700 15 189 4.8 4.8 0.00 0.00 0.00 40 1012.2
20260503003156 15 204 1.6 3.2 0.00 0.00 0.00 39 1012.1
20260503002653 15 226 1.6 3.2 0.00 0.00 0.00 39 1012.2
20260503002150 16 211 3.2 3.2 0.00 0.00 0.00 39 1012.2
20260503001646 15 231 6.4 11.3 0.00 0.00 0.00 38 1012.3
20260503001143 16 254 6.4 11.3 0.00 0.00 0.00 38 1012.5
20260503000641 16 219 4.8 8.0 0.00 0.00 0.00 38 1012.3
20260503000138 16 226 4.8 12.9 0.00 0.00 0.00 38 1012.6
20260502235634 16 249 8.0 11.3 0.00 0.00 0.00 38 1012.5
20260502235133 16 253 9.7 16.1 0.00 0.00 0.00 38 1012.5
20260502234628 16 263 8.0 11.3 0.00 0.00 0.00 38 1012.6
20260502234126 16 232 6.4 11.3 0.00 0.00 0.00 38 1012.6
20260502233621 16 251 6.4 8.0 0.00 0.00 0.00 37 1012.6
20260502233118 16 270 9.7 12.9 0.00 0.00 0.00 37 1012.8
20260502232614 16 297 11.3 12.9 0.00 0.00 0.00 37 1013.1
20260502232112 16 228 4.8 12.9 0.00 0.00 0.00 37 1013.0
20260502231608 16 258 8.0 17.7 0.00 0.00 0.00 37 1013.0
20260502231107 16 235 19.3 24.1 0.00 0.00 0.00 37 1012.9
20260502230604 16 283 11.3 17.7 0.00 0.00 0.00 37 1013.0
20260502225558 16 268 11.3 14.5 0.00 0.00 0.00 37 1013.2
20260502225055 16 276 8.0 17.7 0.00 0.00 0.00 37 1013.4
20260502224551 16 266 11.3 25.7 0.00 0.00 0.00 37 1013.4
20260502224048 16 285 12.9 22.5 0.00 0.00 0.00 36 1013.3
20260502223546 16 301 16.1 27.4 0.00 0.00 0.00 37 1013.4
20260502223045 16 241 12.9 20.9 0.00 0.00 0.00 36 1013.4
20260502222541 16 272 19.3 27.4 0.00 0.00 0.00 36 1013.4
20260502222037 16 274 17.7 22.5 0.00 0.00 0.00 36 1013.3
20260502221533 16 275 8.0 29.0 0.00 0.00 0.00 36 1013.3
20260502221031 16 292 11.3 16.1 0.00 0.00 0.00 36 1013.4
20260502220526 16 266 9.7 12.9 0.00 0.00 0.00 36 1013.8
20260502220024 16 216 9.7 22.5 0.00 0.00 0.00 37 1013.4
20260502215521 15 280 19.3 25.7 0.00 0.00 0.00 37 1013.5
20260502215017 16 323 19.3 24.1 0.00 0.00 0.00 36 1013.5
20260502214514 16 304 16.1 16.1 0.00 0.00 0.00 35 1013.7
20260502214012 16 268 14.5 17.7 0.00 0.00 0.00 35 1013.7
20260502213508 16 254 16.1 24.1 0.00 0.00 0.00 36 1013.8
20260502213007 16 278 19.3 25.7 0.00 0.00 0.00 35 1014.0
20260502212505 16 210 6.4 12.9 0.00 0.00 0.00 35 1014.1
20260502212002 16 281 12.9 16.1 0.00 0.00 0.00 35 1014.2
20260502211457 15 308 12.9 20.9 0.00 0.00 0.00 35 1014.2
20260502210955 16 286 17.7 22.5 0.00 0.00 0.00 35 1014.4
20260502210451 16 274 11.3 17.7 0.00 0.00 0.00 35 1014.3
20260502205949 15 301 12.9 16.1 0.00 0.00 0.00 34 1014.4
20260502205445 16 290 14.5 17.7 0.00 0.00 0.00 34 1014.4
20260502204942 16 247 12.9 17.7 0.00 0.00 0.00 34 1014.4
20260502204439 16 294 14.5 17.7 0.00 0.00 0.00 33 1014.6
20260502203937 16 216 6.4 20.9 0.00 0.00 0.00 34 1014.5
20260502203434 16 266 14.5 25.7 0.00 0.00 0.00 34 1014.7
20260502202930 15 194 8.0 17.7 0.00 0.00 0.00 34 1014.9
20260502202427 15 284 12.9 17.7 0.00 0.00 0.00 34 1014.9
20260502201925 16 255 17.7 24.1 0.00 0.00 0.00 34 1014.9
20260502201421 15 274 12.9 17.7 0.00 0.00 0.00 34 1014.9
20260502200918 15 251 4.8 20.9 0.00 0.00 0.00 34 1015.2
20260502200414 15 273 20.9 40.2 0.00 0.00 0.00 33 1015.3
20260502195912 15 283 12.9 17.7 0.00 0.00 0.00 33 1015.3
20260502195408 15 273 12.9 22.5 0.00 0.00 0.00 32 1015.4
20260502194905 15 291 24.1 37.0 0.00 0.00 0.00 32 1015.4
20260502194402 15 294 14.5 32.2 0.00 0.00 0.00 33 1015.5
20260502193857 15 283 17.7 29.0 0.00 0.00 0.00 33 1015.7
20260502193355 15 268 17.7 25.7 0.00 0.00 0.00 34 1015.6
20260502192850 15 310 16.1 41.8 0.00 0.00 0.00 35 1016.0
20260502192348 15 262 8.0 25.7 0.00 0.00 0.00 35 1015.9
20260502191844 14 278 30.6 37.0 0.00 0.00 0.00 35 1016.0
20260502191343 15 259 11.3 14.5 0.00 0.00 0.00 35 1015.9
20260502190839 15 276 12.9 22.5 0.00 0.00 0.00 35 1016.0
20260502190337 15 267 14.5 32.2 0.00 0.00 0.00 35 1016.0
20260502185832 15 288 35.4 43.5 0.00 0.00 0.00 34 1016.0
20260502185328 15 296 29.0 40.2 0.00 0.00 0.00 33 1016.1
20260502184825 15 263 11.3 14.5 0.00 0.00 0.00 33 1016.0
20260502184321 15 291 32.2 38.6 0.00 0.00 0.00 33 1016.2
20260502183818 14 301 32.2 37.0 0.00 0.00 0.00 33 1016.2
20260502183314 14 299 35.4 56.3 0.00 0.00 0.00 33 1016.4
20260502182809 14 345 22.5 37.0 0.00 0.00 0.00 33 1016.6
20260502182305 13 301 41.8 48.3 0.00 0.00 0.00 33 1016.6
20260502181801 14 287 43.5 59.5 0.00 0.00 0.00 34 1016.7
20260502181300 13 283 9.7 14.5 0.00 0.00 0.00 34 1016.8
20260502180758 13 303 14.5 24.1 0.00 0.00 0.00 34 1016.7
20260502180255 13 308 37.0 51.5 0.00 0.00 0.00 34 1016.7
20260502170214 13 286 14.5 20.9 0.00 0.00 0.00 34 1017.5
20260502164201 12 296 17.7 17.7 0.00 0.00 0.00 35 1017.7
20260502163656 12 275 38.6 46.7 0.00 0.00 0.00 35 1018.0
20260502163153 12 278 19.3 25.7 0.00 0.00 0.00 36 1018.0
20260502162650 12 323 12.9 17.7 0.00 0.00 0.00 38 1017.9
20260502162147 12 275 14.5 25.7 0.00 0.00 0.00 38 1018.3
20260502161644 12 262 17.7 22.5 0.00 0.00 0.00 38 1018.1
20260502161140 12 270 12.9 22.5 0.00 0.00 0.00 39 1018.3
20260502160639 12 261 14.5 25.7 0.00 0.00 0.00 39 1018.2
20260502160137 12 279 12.9 20.9 0.00 0.00 0.00 41 1018.2
20260502152057 11 279 11.3 14.5 0.00 0.00 0.00 44 1018.6
20260502151554 11 287 6.4 12.9 0.00 0.00 0.00 46 1018.7
20260502151052 11 293 9.7 12.9 0.00 0.00 0.00 49 1018.7
20260502150549 10 242 3.2 4.8 0.00 0.00 0.00 49 1018.6
20260502130434 4 268 11.3 12.9 0.00 0.00 0.00 68 1019.3
20260502123416 3 257 1.6 4.8 0.00 0.00 0.00 69 1019.3
20260502122914 2 235 1.6 3.2 0.00 0.00 0.00 71 1019.1
20260502122410 2 251 1.6 3.2 0.00 0.00 0.00 72 1019.3
20260502121908 2 217 1.6 1.6 0.00 0.00 0.00 73 1019.4
20260502121405 2 210 0.0 0.0 0.00 0.00 0.00 74 1019.3
20260502120903 2 202 0.0 0.0 0.00 0.00 0.00 74 1019.2
20260502120358 2 202 0.0 1.6 0.00 0.00 0.00 75 1019.3
20260502115856 1 201 1.6 1.6 0.00 0.00 0.00 77 1019.2
20260502115353 1 213 0.0 0.0 0.00 0.00 0.00 78 1019.2
20260502114849 1 213 0.0 0.0 0.00 0.00 0.00 78 1019.2
20260502114346 1 213 0.0 0.0 0.00 0.00 0.00 79 1019.2
20260502113843 1 213 0.0 0.0 0.00 0.00 0.00 79 1019.3
20260502113341 1 213 0.0 0.0 0.00 0.00 0.00 80 1019.1
20260502112839 0 227 0.0 0.0 0.00 0.00 0.00 81 1019.1
20260502112337 0 228 0.0 0.0 0.00 0.00 0.00 82 1019.2
20260502111834 0 229 0.0 0.0 0.00 0.00 0.00 83 1019.1
20260502111331 0 229 0.0 0.0 0.00 0.00 0.00 83 1019.2
20260502110828 0 229 0.0 0.0 0.00 0.00 0.00 83 1019.1
20260502110326 0 230 0.0 0.0 0.00 0.00 0.00 84 1019.0
20260502105823 0 231 0.0 1.6 0.00 0.00 0.00 85 1019.2
20260502105320 0 231 0.0 0.0 0.00 0.00 0.00 85 1019.2
20260502104818 1 231 0.0 3.2 0.00 0.00 0.00 85 1019.0
20260502104315 0 198 1.6 3.2 0.00 0.00 0.00 82 1019.2
20260502103812 0 194 0.0 0.0 0.00 0.00 0.00 80 1018.9
20260502103309 0 194 0.0 0.0 0.00 0.00 0.00 79 1019.1
20260502102807 0 194 0.0 0.0 0.00 0.00 0.00 77 1019.0
20260502102305 0 194 0.0 0.0 0.00 0.00 0.00 77 1018.9
20260502101801 0 194 0.0 0.0 0.00 0.00 0.00 75 1019.0
20260502101259 0 194 0.0 0.0 0.00 0.00 0.00 75 1019.1
20260502100756 0 193 0.0 0.0 0.00 0.00 0.00 75 1019.3
20260502100255 0 193 0.0 0.0 0.00 0.00 0.00 74 1019.3
20260502091229 0 107 0.0 1.6 0.00 0.00 0.00 76 1019.4
20260502090726 0 107 1.6 3.2 0.00 0.00 0.00 77 1019.3
20260502090223 0 106 1.6 3.2 0.00 0.00 0.00 77 1019.3
20260502071119 1 133 0.0 1.6 0.00 0.00 0.00 77 1019.6
20260502070617 1 132 1.6 3.2 0.00 0.00 0.00 77 1019.7
20260502070115 1 133 1.6 1.6 0.00 0.00 0.00 76 1019.7
20260502065613 1 133 0.0 1.6 0.00 0.00 0.00 75 1019.7
20260502065110 2 133 1.6 3.2 0.00 0.00 0.00 74 1019.8
20260502064609 2 133 0.0 1.6 0.00 0.00 0.00 73 1020.0
20260502064105 2 133 0.0 1.6 0.00 0.00 0.00 73 1019.9
20260502063603 2 133 1.6 1.6 0.00 0.00 0.00 73 1019.9
20260502063100 1 133 1.6 1.6 0.00 0.00 0.00 74 1019.9
20260502062557 1 133 0.0 1.6 0.00 0.00 0.00 74 1020.0
20260502062055 2 133 0.0 1.6 0.00 0.00 0.00 74 1019.9
20260502061553 1 133 0.0 1.6 0.00 0.00 0.00 74 1020.0
20260502061050 2 133 0.0 1.6 0.00 0.00 0.00 74 1019.9
20260502060545 2 133 0.0 1.6 0.00 0.00 0.00 74 1019.8
20260502060042 2 133 0.0 1.6 0.00 0.00 0.00 73 1019.8
20260502055540 2 133 0.0 1.6 0.00 0.00 0.00 72 1019.9
20260502055038 2 133 1.6 1.6 0.00 0.00 0.00 72 1019.7
20260502054537 2 132 1.6 1.6 0.00 0.00 0.00 71 1019.8
20260502054033 2 133 0.0 1.6 0.00 0.00 0.00 71 1019.7
20260502053530 2 132 0.0 1.6 0.00 0.00 0.00 71 1019.6
20260502053028 2 133 0.0 1.6 0.00 0.00 0.00 70 1019.8
20260502052526 2 132 1.6 3.2 0.00 0.00 0.00 70 1019.7
20260502052024 2 133 0.0 1.6 0.00 0.00 0.00 70 1019.8
20260502051522 3 132 1.6 1.6 0.00 0.00 0.00 69 1019.8